| time (UTC) | temp F | wind direction | speed MPH | gust MPH | rain 1hr in | rain 24hr in | rain mn in | humidity % | barometer mb |
| 20260506145502 | 47 | 34 | 5.0 | 12.0 | 0.00 | 1.12 | 0.61 | 90 | 1009.8 |
| 20260506145002 | 47 | 345 | 4.0 | 12.0 | 0.00 | 1.12 | 0.61 | 90 | 1009.8 |
| 20260506144610 | 47 | 11 | 5.0 | 11.0 | 0.00 | 1.12 | 0.61 | 90 | 1009.7 |
| 20260506144059 | 47 | 360 | 5.0 | 11.0 | 0.00 | 1.12 | 0.61 | 91 | 1009.6 |
| 20260506143559 | 46 | 33 | 4.0 | 14.0 | 0.00 | 1.12 | 0.61 | 91 | 1009.5 |
| 20260506143057 | 46 | 342 | 6.0 | 14.0 | 0.00 | 1.12 | 0.61 | 91 | 1009.4 |
| 20260506142555 | 46 | 360 | 5.0 | 11.0 | 0.00 | 1.12 | 0.61 | 92 | 1009.2 |
| 20260506142055 | 46 | 345 | 4.0 | 12.0 | 0.00 | 1.12 | 0.61 | 92 | 1009.2 |
| 20260506141555 | 47 | 13 | 4.0 | 14.0 | 0.00 | 1.12 | 0.61 | 92 | 1009.2 |
| 20260506141055 | 47 | 17 | 4.0 | 14.0 | 0.00 | 1.12 | 0.61 | 93 | 1009.1 |
| 20260506140556 | 47 | 27 | 2.0 | 11.0 | 0.00 | 1.12 | 0.61 | 93 | 1008.9 |
| 20260506140054 | 47 | 13 | 5.0 | 11.0 | 0.00 | 1.12 | 0.61 | 93 | 1008.9 |
| 20260506135552 | 47 | 351 | 5.0 | 11.0 | 0.00 | 1.12 | 0.61 | 94 | 1008.9 |
| 20260506135051 | 47 | 28 | 6.0 | 11.0 | 0.00 | 1.12 | 0.61 | 94 | 1008.8 |
| 20260506134550 | 47 | 338 | 7.0 | 10.0 | 0.00 | 1.12 | 0.61 | 95 | 1008.7 |
| 20260506134053 | 46 | 32 | 6.0 | 9.0 | 0.00 | 1.12 | 0.61 | 95 | 1008.4 |
| 20260506133549 | 46 | 350 | 4.0 | 9.0 | 0.00 | 1.12 | 0.61 | 96 | 1008.6 |
| 20260506133049 | 46 | 28 | 6.0 | 10.0 | 0.00 | 1.12 | 0.61 | 96 | 1008.6 |
| 20260506132551 | 46 | 21 | 6.0 | 10.0 | 0.00 | 1.12 | 0.61 | 96 | 1008.4 |
| 20260506132049 | 46 | 355 | 3.0 | 11.0 | 0.00 | 1.12 | 0.61 | 96 | 1008.4 |
| 20260506131553 | 46 | 32 | 3.0 | 11.0 | 0.00 | 1.12 | 0.61 | 96 | 1008.4 |
| 20260506131047 | 46 | 42 | 4.0 | 10.0 | 0.00 | 1.12 | 0.61 | 96 | 1008.3 |
| 20260506130546 | 46 | 15 | 4.0 | 10.0 | 0.00 | 1.12 | 0.61 | 96 | 1008.2 |
| 20260506130046 | 46 | 30 | 5.0 | 10.0 | 0.00 | 1.12 | 0.61 | 96 | 1008.1 |
| 20260506125548 | 45 | 5 | 5.0 | 11.0 | 0.00 | 1.12 | 0.61 | 96 | 1008.1 |
| 20260506125045 | 45 | 45 | 5.0 | 11.0 | 0.00 | 1.12 | 0.61 | 96 | 1008.0 |
| 20260506124543 | 45 | 44 | 4.0 | 9.0 | 0.00 | 1.12 | 0.61 | 96 | 1008.1 |
| 20260506124044 | 45 | 45 | 4.0 | 10.0 | 0.00 | 1.12 | 0.61 | 96 | 1008.1 |
| 20260506123542 | 45 | 25 | 5.0 | 10.0 | 0.00 | 1.12 | 0.61 | 96 | 1008.2 |
| 20260506123042 | 45 | 19 | 3.0 | 9.0 | 0.00 | 1.12 | 0.61 | 96 | 1008.1 |
| 20260506122542 | 45 | 350 | 4.0 | 10.0 | 0.00 | 1.12 | 0.61 | 96 | 1008.0 |
| 20260506122039 | 45 | 22 | 6.0 | 10.0 | 0.01 | 1.12 | 0.61 | 96 | 1008.3 |
| 20260506121539 | 45 | 329 | 4.0 | 9.0 | 0.01 | 1.12 | 0.61 | 96 | 1008.3 |
| 20260506121141 | 45 | 9 | 4.0 | 8.0 | 0.01 | 1.12 | 0.61 | 96 | 1008.0 |
| 20260506120537 | 45 | 34 | 3.0 | 7.0 | 0.02 | 1.12 | 0.61 | 96 | 1007.8 |
| 20260506120040 | 45 | 37 | 4.0 | 8.0 | 0.02 | 1.12 | 0.61 | 96 | 1007.2 |
| 20260506115536 | 45 | 57 | 3.0 | 10.0 | 0.02 | 1.12 | 0.61 | 96 | 1006.9 |
| 20260506115035 | 45 | 40 | 7.0 | 13.0 | 0.02 | 1.12 | 0.61 | 96 | 1006.9 |
| 20260506114532 | 45 | 16 | 6.0 | 13.0 | 0.02 | 1.12 | 0.61 | 96 | 1007.1 |
| 20260506114031 | 45 | 41 | 5.0 | 9.0 | 0.02 | 1.12 | 0.61 | 96 | 1007.2 |
| 20260506113530 | 45 | 5 | 3.0 | 10.0 | 0.02 | 1.12 | 0.61 | 96 | 1007.3 |
| 20260506113038 | 45 | 36 | 5.0 | 10.0 | 0.02 | 1.12 | 0.61 | 96 | 1007.3 |
| 20260506112529 | 44 | 31 | 6.0 | 10.0 | 0.02 | 1.12 | 0.61 | 96 | 1007.0 |
| 20260506112033 | 44 | 44 | 7.0 | 10.0 | 0.01 | 1.12 | 0.60 | 96 | 1007.0 |
| 20260506111531 | 44 | 14 | 5.0 | 9.0 | 0.01 | 1.12 | 0.60 | 96 | 1007.5 |
| 20260506111027 | 44 | 24 | 4.0 | 10.0 | 0.00 | 1.11 | 0.59 | 96 | 1007.6 |
| 20260506110526 | 44 | 13 | 5.0 | 10.0 | 0.00 | 1.11 | 0.59 | 96 | 1007.3 |
| 20260506110025 | 44 | 22 | 4.0 | 9.0 | 0.00 | 1.11 | 0.59 | 96 | 1007.1 |
| 20260506105525 | 44 | 15 | 4.0 | 10.0 | 0.00 | 1.11 | 0.59 | 96 | 1006.9 |
| 20260506105023 | 44 | 14 | 5.0 | 13.0 | 0.01 | 1.11 | 0.59 | 96 | 1006.5 |
| 20260506104525 | 44 | 36 | 5.0 | 13.0 | 0.01 | 1.11 | 0.59 | 96 | 1006.5 |
| 20260506104022 | 44 | 34 | 6.0 | 12.0 | 0.02 | 1.11 | 0.59 | 96 | 1006.1 |
| 20260506103525 | 44 | 52 | 8.0 | 13.0 | 0.03 | 1.11 | 0.59 | 96 | 1005.9 |
| 20260506103025 | 44 | 49 | 8.0 | 15.0 | 0.03 | 1.11 | 0.59 | 96 | 1005.7 |
| 20260506102523 | 44 | 68 | 10.0 | 15.0 | 0.04 | 1.11 | 0.59 | 96 | 1005.2 |
| 20260506102021 | 44 | 43 | 10.0 | 14.0 | 0.05 | 1.11 | 0.59 | 96 | 1005.6 |
| 20260506101521 | 44 | 62 | 7.0 | 13.0 | 0.05 | 1.11 | 0.59 | 96 | 1005.5 |
| 20260506101020 | 44 | 31 | 8.0 | 14.0 | 0.06 | 1.11 | 0.59 | 96 | 1006.0 |
| 20260506100520 | 44 | 22 | 6.0 | 14.0 | 0.07 | 1.11 | 0.59 | 96 | 1006.2 |
| 20260506100120 | 44 | 34 | 7.0 | 14.0 | 0.08 | 1.11 | 0.59 | 96 | 1006.2 |
| 20260506095520 | 44 | 30 | 9.0 | 14.0 | 0.09 | 1.11 | 0.59 | 96 | 1005.9 |
| 20260506095018 | 44 | 22 | 7.0 | 12.0 | 0.08 | 1.10 | 0.57 | 96 | 1005.8 |
| 20260506094517 | 44 | 36 | 8.0 | 12.0 | 0.08 | 1.10 | 0.57 | 96 | 1005.9 |
| 20260506094016 | 44 | 32 | 6.0 | 11.0 | 0.07 | 1.09 | 0.56 | 96 | 1006.1 |
| 20260506093516 | 44 | 44 | 6.0 | 12.0 | 0.06 | 1.08 | 0.56 | 96 | 1006.5 |
| 20260506093015 | 44 | 11 | 8.0 | 12.0 | 0.06 | 1.08 | 0.56 | 96 | 1006.5 |
| 20260506092514 | 44 | 17 | 7.0 | 12.0 | 0.05 | 1.07 | 0.55 | 96 | 1006.4 |
| 20260506092013 | 44 | 29 | 7.0 | 12.0 | 0.04 | 1.06 | 0.54 | 96 | 1006.2 |
| 20260506091513 | 44 | 32 | 8.0 | 14.0 | 0.04 | 1.06 | 0.54 | 96 | 1006.1 |
| 20260506091012 | 44 | 40 | 7.0 | 14.0 | 0.04 | 1.05 | 0.53 | 96 | 1006.1 |
| 20260506090511 | 44 | 31 | 7.0 | 14.0 | 0.03 | 1.04 | 0.52 | 96 | 1006.2 |
| 20260506090013 | 44 | 38 | 8.0 | 14.0 | 0.03 | 1.03 | 0.51 | 96 | 1006.3 |
| 20260506085609 | 44 | 355 | 8.0 | 16.0 | 0.03 | 1.02 | 0.50 | 96 | 1006.2 |
| 20260506085009 | 44 | 25 | 10.0 | 18.0 | 0.05 | 1.02 | 0.50 | 96 | 1006.1 |
| 20260506084507 | 45 | 360 | 11.0 | 18.0 | 0.07 | 1.02 | 0.50 | 96 | 1006.0 |
| 20260506084009 | 45 | 350 | 10.0 | 16.0 | 0.09 | 1.02 | 0.50 | 96 | 1005.8 |
| 20260506083505 | 45 | 25 | 11.0 | 14.0 | 0.11 | 1.02 | 0.50 | 96 | 1005.7 |
| 20260506083004 | 46 | 22 | 8.0 | 14.0 | 0.13 | 1.02 | 0.50 | 96 | 1005.6 |
| 20260506082503 | 46 | 11 | 8.0 | 14.0 | 0.14 | 1.02 | 0.50 | 96 | 1005.3 |
| 20260506082003 | 46 | 26 | 9.0 | 13.0 | 0.15 | 1.02 | 0.50 | 96 | 1005.0 |
| 20260506081500 | 47 | 30 | 6.0 | 11.0 | 0.16 | 1.02 | 0.50 | 97 | 1005.0 |
| 20260506081100 | 47 | 50 | 6.0 | 13.0 | 0.15 | 1.01 | 0.49 | 97 | 1005.2 |
| 20260506080600 | 47 | 33 | 6.0 | 13.0 | 0.16 | 1.01 | 0.49 | 97 | 1005.3 |
| 20260506080108 | 47 | 31 | 7.0 | 11.0 | 0.16 | 1.00 | 0.48 | 97 | 1005.3 |
| 20260506073056 | 48 | 24 | 6.0 | 10.0 | 0.10 | 0.89 | 0.37 | 97 | 1005.2 |
| 20260506072556 | 48 | 15 | 4.0 | 9.0 | 0.09 | 0.88 | 0.36 | 97 | 1005.0 |
| 20260506072056 | 48 | 33 | 3.0 | 10.0 | 0.09 | 0.87 | 0.35 | 96 | 1004.9 |
| 20260506071603 | 48 | 34 | 6.0 | 10.0 | 0.08 | 0.86 | 0.34 | 96 | 1004.8 |
| 20260506071055 | 48 | 27 | 4.0 | 11.0 | 0.07 | 0.85 | 0.33 | 96 | 1004.8 |
| 20260506070554 | 48 | 56 | 7.0 | 12.0 | 0.07 | 0.85 | 0.33 | 96 | 1004.6 |
| 20260506062046 | 49 | 9 | 5.0 | 10.0 | 0.03 | 0.78 | 0.26 | 96 | 1005.0 |
| 20260506061546 | 49 | 38 | 6.0 | 11.0 | 0.04 | 0.78 | 0.26 | 96 | 1005.0 |
| 20260506061044 | 49 | 28 | 7.0 | 10.0 | 0.04 | 0.78 | 0.26 | 96 | 1005.2 |
| 20260506060543 | 49 | 30 | 5.0 | 10.0 | 0.04 | 0.77 | 0.25 | 96 | 1005.3 |
| 20260506051032 | 51 | 17 | 5.0 | 11.0 | 0.19 | 0.74 | 0.22 | 95 | 1005.8 |
| 20260506050531 | 52 | 21 | 4.0 | 13.0 | 0.20 | 0.73 | 0.21 | 95 | 1005.8 |
| 20260506045027 | 56 | 28 | 5.0 | 10.0 | 0.15 | 0.66 | 0.14 | 96 | 1005.8 |
| 20260506044526 | 56 | 269 | 2.0 | 5.0 | 0.14 | 0.65 | 0.13 | 96 | 1005.9 |
| 20260506044025 | 56 | 263 | 2.0 | 7.0 | 0.13 | 0.63 | 0.11 | 96 | 1005.9 |
| 20260506043529 | 57 | 244 | 2.0 | 8.0 | 0.12 | 0.62 | 0.10 | 96 | 1006.0 |
| 20260506043025 | 57 | 257 | 2.0 | 9.0 | 0.11 | 0.60 | 0.08 | 96 | 1006.0 |
| 20260506042525 | 57 | 209 | 3.0 | 9.0 | 0.11 | 0.59 | 0.07 | 96 | 1006.0 |
| 20260506042026 | 57 | 249 | 3.0 | 10.0 | 0.11 | 0.57 | 0.06 | 96 | 1006.1 |
| 20260506041523 | 57 | 265 | 5.0 | 10.0 | 0.11 | 0.56 | 0.05 | 96 | 1006.1 |
| 20260506041025 | 57 | 260 | 4.0 | 10.0 | 0.09 | 0.55 | 0.03 | 96 | 1006.1 |
| 20260506040521 | 57 | 265 | 5.0 | 10.0 | 0.07 | 0.53 | 0.01 | 96 | 1006.2 |
| 20260506040023 | 57 | 273 | 4.0 | 7.0 | 0.06 | 0.52 | 0.00 | 96 | 1006.2 |
| 20260506035519 | 57 | 269 | 2.0 | 5.0 | 0.07 | 0.52 | 0.52 | 96 | 1006.2 |
| 20260506035020 | 57 | 264 | 1.0 | 4.0 | 0.06 | 0.51 | 0.51 | 96 | 1006.2 |
| 20260506034621 | 57 | 264 | 2.0 | 4.0 | 0.07 | 0.51 | 0.51 | 96 | 1006.2 |
| 20260506034019 | 57 | 264 | 1.0 | 6.0 | 0.06 | 0.50 | 0.50 | 96 | 1006.2 |
| 20260506033518 | 57 | 264 | 2.0 | 7.0 | 0.05 | 0.49 | 0.49 | 96 | 1006.2 |
| 20260506033018 | 57 | 264 | 2.0 | 7.0 | 0.06 | 0.49 | 0.49 | 96 | 1006.3 |
| 20260506032517 | 57 | 252 | 1.0 | 3.0 | 0.05 | 0.48 | 0.48 | 96 | 1006.3 |
| 20260506032017 | 57 | 253 | 1.0 | 4.0 | 0.05 | 0.47 | 0.47 | 96 | 1006.3 |
| 20260506031518 | 57 | 252 | 1.0 | 4.0 | 0.04 | 0.46 | 0.46 | 96 | 1006.3 |
| 20260506031016 | 57 | 252 | 1.0 | 4.0 | 0.05 | 0.46 | 0.46 | 96 | 1006.4 |
| 20260506030516 | 57 | 243 | 1.0 | 4.0 | 0.05 | 0.46 | 0.46 | 96 | 1006.4 |
| 20260506030032 | 57 | 243 | 1.0 | 4.0 | 0.05 | 0.46 | 0.46 | 96 | 1006.5 |
| 20260506025517 | 57 | 261 | 1.0 | 6.0 | 0.05 | 0.45 | 0.45 | 96 | 1006.6 |
| 20260506025019 | 57 | 261 | 1.0 | 6.0 | 0.05 | 0.45 | 0.45 | 96 | 1006.6 |
| 20260506024539 | 57 | 274 | 2.0 | 6.0 | 0.04 | 0.44 | 0.44 | 96 | 1006.7 |
| 20260506024016 | 57 | 279 | 2.0 | 8.0 | 0.05 | 0.44 | 0.44 | 96 | 1006.6 |
| 20260506023517 | 57 | 248 | 3.0 | 8.0 | 0.05 | 0.44 | 0.44 | 96 | 1006.7 |
| 20260506023016 | 57 | 241 | 2.0 | 11.0 | 0.04 | 0.43 | 0.43 | 96 | 1006.8 |
| 20260506022515 | 57 | 262 | 5.0 | 11.0 | 0.04 | 0.43 | 0.43 | 96 | 1006.9 |
| 20260506022015 | 57 | 256 | 3.0 | 7.0 | 0.03 | 0.42 | 0.42 | 96 | 1006.8 |
| 20260506021515 | 57 | 243 | 2.0 | 4.0 | 0.03 | 0.42 | 0.42 | 96 | 1006.8 |
| 20260506021018 | 57 | 243 | 2.0 | 5.0 | 0.02 | 0.41 | 0.41 | 95 | 1006.8 |
| 20260506020515 | 57 | 243 | 2.0 | 5.0 | 0.02 | 0.41 | 0.41 | 95 | 1006.7 |
| 20260506020014 | 57 | 208 | 2.0 | 6.0 | 0.02 | 0.41 | 0.41 | 95 | 1006.7 |
| 20260506015515 | 57 | 252 | 2.0 | 5.0 | 0.01 | 0.40 | 0.40 | 95 | 1006.6 |
| 20260506015014 | 57 | 242 | 2.0 | 5.0 | 0.02 | 0.40 | 0.40 | 95 | 1006.4 |
| 20260506014514 | 57 | 244 | 2.0 | 5.0 | 0.02 | 0.40 | 0.40 | 95 | 1006.5 |
| 20260506014013 | 57 | 244 | 2.0 | 4.0 | 0.01 | 0.39 | 0.39 | 95 | 1006.4 |
| 20260506013513 | 57 | 244 | 1.0 | 7.0 | 0.01 | 0.39 | 0.39 | 95 | 1006.2 |
| 20260506013022 | 57 | 244 | 2.0 | 7.0 | 0.01 | 0.39 | 0.39 | 95 | 1006.2 |
| 20260506012513 | 57 | 240 | 1.0 | 7.0 | 0.02 | 0.39 | 0.39 | 95 | 1006.2 |
| 20260506012013 | 57 | 240 | 2.0 | 6.0 | 0.02 | 0.39 | 0.39 | 95 | 1006.2 |
| 20260506011513 | 57 | 236 | 2.0 | 5.0 | 0.02 | 0.39 | 0.39 | 95 | 1006.2 |
| 20260506011013 | 57 | 232 | 2.0 | 5.0 | 0.02 | 0.39 | 0.39 | 95 | 1006.1 |
| 20260506010513 | 57 | 229 | 2.0 | 8.0 | 0.02 | 0.39 | 0.39 | 95 | 1006.1 |
| 20260506010014 | 57 | 257 | 3.0 | 9.0 | 0.03 | 0.39 | 0.39 | 95 | 1006.1 |
| 20260506005512 | 57 | 245 | 2.0 | 9.0 | 0.03 | 0.39 | 0.39 | 94 | 1006.2 |
| 20260506005011 | 57 | 250 | 3.0 | 7.0 | 0.02 | 0.38 | 0.38 | 95 | 1006.3 |
| 20260506004510 | 57 | 244 | 2.0 | 9.0 | 0.02 | 0.38 | 0.38 | 94 | 1006.3 |
| 20260506004010 | 57 | 257 | 4.0 | 9.0 | 0.03 | 0.38 | 0.38 | 94 | 1006.3 |
| 20260506003510 | 57 | 255 | 5.0 | 9.0 | 0.04 | 0.38 | 0.38 | 94 | 1006.4 |
| 20260506003010 | 57 | 256 | 4.0 | 9.0 | 0.05 | 0.38 | 0.38 | 94 | 1006.3 |
| 20260506002510 | 57 | 275 | 5.0 | 9.0 | 0.07 | 0.37 | 0.37 | 94 | 1006.3 |
| 20260506002010 | 57 | 304 | 3.0 | 7.0 | 0.17 | 0.37 | 0.37 | 94 | 1006.3 |
| 20260506001510 | 57 | 279 | 1.0 | 5.0 | 0.34 | 0.37 | 0.37 | 94 | 1006.3 |
| 20260506001009 | 57 | 279 | 1.0 | 5.0 | 0.35 | 0.37 | 0.37 | 93 | 1006.3 |
| 20260506000509 | 57 | 279 | 2.0 | 5.0 | 0.34 | 0.36 | 0.36 | 93 | 1006.3 |
| 20260506000009 | 57 | 279 | 1.0 | 7.0 | 0.34 | 0.36 | 0.36 | 93 | 1006.2 |
| 20260505235509 | 57 | 301 | 2.0 | 4.0 | 0.34 | 0.36 | 0.36 | 93 | 1006.2 |
| 20260505235008 | 57 | 263 | 2.0 | 9.0 | 0.34 | 0.36 | 0.36 | 92 | 1006.3 |
| 20260505234507 | 57 | 251 | 5.0 | 9.0 | 0.34 | 0.36 | 0.36 | 92 | 1006.4 |
| 20260505234008 | 58 | 277 | 4.0 | 9.0 | 0.33 | 0.35 | 0.35 | 91 | 1006.5 |
| 20260505233505 | 58 | 292 | 4.0 | 12.0 | 0.32 | 0.34 | 0.34 | 90 | 1006.5 |
| 20260505233004 | 58 | 273 | 5.0 | 18.0 | 0.30 | 0.32 | 0.32 | 89 | 1006.6 |
| 20260505232503 | 59 | 271 | 11.0 | 26.0 | 0.27 | 0.28 | 0.28 | 86 | 1006.7 |
| 20260505232003 | 61 | 254 | 14.0 | 32.0 | 0.13 | 0.15 | 0.15 | 81 | 1006.6 |
| 20260505231502 | 65 | 309 | 16.0 | 32.0 | 0.00 | 0.02 | 0.02 | 70 | 1006.4 |
| 20260505231004 | 67 | 254 | 6.0 | 16.0 | 0.00 | 0.02 | 0.02 | 65 | 1005.6 |
| 20260505230501 | 67 | 250 | 4.0 | 11.0 | 0.00 | 0.02 | 0.02 | 64 | 1005.3 |
| 20260505230005 | 67 | 237 | 6.0 | 12.0 | 0.00 | 0.02 | 0.02 | 64 | 1005.2 |
| 20260505225502 | 67 | 242 | 7.0 | 19.0 | 0.00 | 0.02 | 0.02 | 63 | 1005.3 |
| 20260505225002 | 67 | 245 | 6.0 | 19.0 | 0.00 | 0.02 | 0.02 | 64 | 1005.2 |
| 20260505224601 | 67 | 254 | 5.0 | 15.0 | 0.00 | 0.02 | 0.02 | 64 | 1005.2 |
| 20260505224100 | 67 | 221 | 5.0 | 15.0 | 0.00 | 0.02 | 0.02 | 64 | 1005.3 |
| 20260505223600 | 67 | 248 | 7.0 | 15.0 | 0.00 | 0.02 | 0.02 | 64 | 1005.4 |
| 20260505223111 | 67 | 244 | 6.0 | 14.0 | 0.00 | 0.02 | 0.02 | 65 | 1005.5 |
| 20260505222559 | 67 | 255 | 3.0 | 11.0 | 0.00 | 0.02 | 0.02 | 65 | 1005.5 |
| 20260505222100 | 67 | 211 | 4.0 | 11.0 | 0.00 | 0.02 | 0.02 | 65 | 1005.5 |
| 20260505221559 | 67 | 240 | 4.0 | 9.0 | 0.00 | 0.02 | 0.02 | 65 | 1005.5 |
| 20260505221103 | 67 | 251 | 2.0 | 10.0 | 0.00 | 0.02 | 0.02 | 65 | 1005.6 |
| 20260505220602 | 67 | 225 | 3.0 | 10.0 | 0.00 | 0.02 | 0.02 | 65 | 1005.5 |
| 20260505220108 | 67 | 248 | 4.0 | 10.0 | 0.00 | 0.02 | 0.02 | 65 | 1005.6 |
| 20260505215559 | 67 | 242 | 3.0 | 10.0 | 0.00 | 0.02 | 0.02 | 64 | 1005.5 |
| 20260505215058 | 67 | 207 | 4.0 | 9.0 | 0.00 | 0.02 | 0.02 | 64 | 1005.6 |
| 20260505214558 | 67 | 248 | 4.0 | 11.0 | 0.00 | 0.02 | 0.02 | 64 | 1005.6 |
| 20260505214057 | 67 | 252 | 6.0 | 11.0 | 0.00 | 0.02 | 0.02 | 64 | 1005.6 |
| 20260505213602 | 67 | 237 | 7.0 | 12.0 | 0.00 | 0.02 | 0.02 | 64 | 1005.6 |
| 20260505213100 | 67 | 252 | 5.0 | 12.0 | 0.00 | 0.02 | 0.02 | 64 | 1005.7 |
| 20260505212556 | 67 | 259 | 6.0 | 14.0 | 0.00 | 0.02 | 0.02 | 64 | 1005.6 |
| 20260505212056 | 67 | 236 | 6.0 | 15.0 | 0.00 | 0.02 | 0.02 | 64 | 1005.6 |
| 20260505211556 | 67 | 209 | 6.0 | 15.0 | 0.00 | 0.02 | 0.02 | 64 | 1005.6 |
| 20260505211056 | 67 | 239 | 5.0 | 14.0 | 0.00 | 0.02 | 0.02 | 64 | 1005.7 |
| 20260505210556 | 67 | 261 | 6.0 | 18.0 | 0.00 | 0.02 | 0.02 | 64 | 1005.7 |
| 20260505210055 | 67 | 258 | 10.0 | 18.0 | 0.00 | 0.02 | 0.02 | 63 | 1005.7 |
| 20260505205555 | 67 | 266 | 7.0 | 17.0 | 0.00 | 0.02 | 0.02 | 65 | 1005.7 |
| 20260505205054 | 67 | 248 | 7.0 | 17.0 | 0.00 | 0.02 | 0.02 | 65 | 1005.8 |
| 20260505204601 | 67 | 232 | 5.0 | 15.0 | 0.00 | 0.02 | 0.02 | 65 | 1005.8 |
| 20260505204054 | 67 | 252 | 7.0 | 15.0 | 0.00 | 0.02 | 0.02 | 65 | 1005.9 |
| 20260505203554 | 66 | 232 | 8.0 | 14.0 | 0.00 | 0.02 | 0.02 | 65 | 1005.9 |
| 20260505203106 | 66 | 285 | 7.0 | 13.0 | 0.00 | 0.02 | 0.02 | 68 | 1006.0 |
| 20260505202654 | 66 | 250 | 4.0 | 9.0 | 0.00 | 0.02 | 0.02 | 68 | 1006.1 |
| 20260505202155 | 66 | 242 | 4.0 | 10.0 | 0.00 | 0.02 | 0.02 | 70 | 1006.1 |
| 20260505201552 | 66 | 251 | 4.0 | 10.0 | 0.00 | 0.02 | 0.02 | 70 | 1006.0 |
| 20260505201052 | 65 | 250 | 6.0 | 11.0 | 0.00 | 0.02 | 0.02 | 71 | 1006.1 |
| 20260505200556 | 65 | 242 | 6.0 | 12.0 | 0.00 | 0.02 | 0.02 | 71 | 1006.1 |
| 20260505200052 | 65 | 261 | 5.0 | 12.0 | 0.00 | 0.02 | 0.02 | 72 | 1006.2 |
| 20260505195553 | 65 | 234 | 5.0 | 12.0 | 0.00 | 0.02 | 0.02 | 73 | 1006.2 |
| 20260505195052 | 64 | 263 | 5.0 | 13.0 | 0.00 | 0.02 | 0.02 | 74 | 1006.2 |
| 20260505194604 | 64 | 219 | 8.0 | 13.0 | 0.00 | 0.02 | 0.02 | 75 | 1006.4 |
| 20260505194052 | 64 | 266 | 6.0 | 15.0 | 0.00 | 0.02 | 0.02 | 75 | 1006.4 |
| 20260505193549 | 64 | 244 | 7.0 | 15.0 | 0.00 | 0.02 | 0.02 | 75 | 1006.4 |
| 20260505193049 | 64 | 269 | 7.0 | 21.0 | 0.00 | 0.02 | 0.02 | 74 | 1006.4 |
| 20260505192549 | 64 | 233 | 10.0 | 23.0 | 0.00 | 0.02 | 0.02 | 73 | 1006.4 |
| 20260505192049 | 65 | 279 | 11.0 | 23.0 | 0.00 | 0.02 | 0.02 | 70 | 1006.4 |
| 20260505191549 | 67 | 244 | 9.0 | 16.0 | 0.00 | 0.02 | 0.02 | 65 | 1006.4 |
| 20260505191049 | 68 | 271 | 5.0 | 11.0 | 0.00 | 0.02 | 0.02 | 63 | 1006.2 |
| 20260505190553 | 68 | 262 | 6.0 | 13.0 | 0.00 | 0.02 | 0.02 | 62 | 1006.2 |
| 20260505190048 | 68 | 292 | 7.0 | 13.0 | 0.00 | 0.02 | 0.02 | 63 | 1006.2 |
| 20260505185551 | 68 | 254 | 3.0 | 13.0 | 0.00 | 0.02 | 0.02 | 64 | 1006.3 |
| 20260505185048 | 68 | 232 | 7.0 | 13.0 | 0.00 | 0.02 | 0.02 | 61 | 1006.3 |
| 20260505184547 | 68 | 286 | 8.0 | 14.0 | 0.00 | 0.02 | 0.02 | 61 | 1006.4 |
| 20260505184047 | 69 | 286 | 8.0 | 18.0 | 0.00 | 0.02 | 0.02 | 62 | 1006.5 |
| 20260505183550 | 68 | 213 | 9.0 | 18.0 | 0.00 | 0.02 | 0.02 | 61 | 1006.5 |
| 20260505183056 | 68 | 261 | 9.0 | 16.0 | 0.00 | 0.02 | 0.02 | 61 | 1006.6 |
| 20260505182545 | 68 | 262 | 8.0 | 15.0 | 0.00 | 0.02 | 0.02 | 62 | 1006.7 |
| 20260505182044 | 68 | 271 | 9.0 | 17.0 | 0.00 | 0.02 | 0.02 | 62 | 1006.7 |
| 20260505181544 | 68 | 230 | 8.0 | 17.0 | 0.00 | 0.02 | 0.02 | 62 | 1006.8 |
| 20260505181044 | 68 | 280 | 8.0 | 17.0 | 0.00 | 0.02 | 0.02 | 62 | 1006.7 |
| 20260505180543 | 68 | 231 | 7.0 | 14.0 | 0.00 | 0.02 | 0.02 | 63 | 1006.8 |
| 20260505180043 | 68 | 269 | 8.0 | 15.0 | 0.00 | 0.02 | 0.02 | 62 | 1006.8 |
| 20260505175542 | 68 | 246 | 6.0 | 16.0 | 0.00 | 0.02 | 0.02 | 62 | 1006.8 |
| 20260505175042 | 67 | 268 | 9.0 | 18.0 | 0.00 | 0.02 | 0.02 | 63 | 1006.8 |
| 20260505174547 | 67 | 258 | 9.0 | 18.0 | 0.00 | 0.02 | 0.02 | 64 | 1006.8 |
| 20260505174041 | 66 | 274 | 7.0 | 17.0 | 0.00 | 0.02 | 0.02 | 65 | 1006.9 |
| 20260505173541 | 66 | 249 | 7.0 | 20.0 | 0.00 | 0.02 | 0.02 | 64 | 1006.9 |
| 20260505173048 | 66 | 257 | 9.0 | 21.0 | 0.00 | 0.02 | 0.02 | 64 | 1006.9 |
| 20260505172543 | 66 | 259 | 9.0 | 21.0 | 0.00 | 0.02 | 0.02 | 63 | 1006.8 |
| 20260505172041 | 67 | 276 | 9.0 | 19.0 | 0.00 | 0.02 | 0.02 | 63 | 1006.9 |
| 20260505171541 | 67 | 240 | 9.0 | 23.0 | 0.00 | 0.02 | 0.02 | 63 | 1006.9 |
| 20260505171041 | 67 | 243 | 8.0 | 23.0 | 0.00 | 0.02 | 0.02 | 62 | 1006.9 |
| 20260505170541 | 67 | 234 | 10.0 | 21.0 | 0.00 | 0.02 | 0.02 | 63 | 1006.9 |
| 20260505170041 | 68 | 247 | 10.0 | 21.0 | 0.00 | 0.02 | 0.02 | 61 | 1006.9 |
| 20260505165540 | 67 | 275 | 11.0 | 20.0 | 0.00 | 0.02 | 0.02 | 61 | 1006.9 |
| 20260505165039 | 67 | 250 | 10.0 | 19.0 | 0.00 | 0.02 | 0.02 | 61 | 1007.0 |
| 20260505164550 | 67 | 259 | 11.0 | 28.0 | 0.00 | 0.02 | 0.02 | 61 | 1006.9 |
| 20260505164039 | 67 | 265 | 14.0 | 28.0 | 0.00 | 0.02 | 0.02 | 62 | 1006.8 |
| 20260505163537 | 67 | 248 | 10.0 | 25.0 | 0.00 | 0.02 | 0.02 | 64 | 1006.9 |
| 20260505163036 | 67 | 234 | 11.0 | 25.0 | 0.00 | 0.02 | 0.02 | 63 | 1006.8 |
| 20260505162538 | 66 | 267 | 9.0 | 23.0 | 0.00 | 0.02 | 0.02 | 66 | 1006.9 |
| 20260505162034 | 66 | 252 | 10.0 | 23.0 | 0.00 | 0.02 | 0.02 | 66 | 1006.7 |
| 20260505161534 | 65 | 200 | 9.0 | 23.0 | 0.00 | 0.02 | 0.02 | 66 | 1006.5 |
| 20260505161034 | 65 | 226 | 10.0 | 17.0 | 0.00 | 0.02 | 0.02 | 66 | 1006.6 |
| 20260505160534 | 65 | 254 | 5.0 | 24.0 | 0.00 | 0.02 | 0.02 | 66 | 1006.7 |
| 20260505153042 | 66 | 244 | 8.0 | 20.0 | 0.00 | 0.02 | 0.02 | 67 | 1006.5 |
| 20260505152527 | 65 | 249 | 10.0 | 22.0 | 0.00 | 0.02 | 0.02 | 67 | 1006.4 |
| 20260505152028 | 65 | 245 | 11.0 | 22.0 | 0.00 | 0.02 | 0.02 | 69 | 1006.5 |
| 20260505151526 | 65 | 263 | 11.0 | 22.0 | 0.00 | 0.02 | 0.02 | 69 | 1006.4 |
| 20260505151026 | 65 | 253 | 7.0 | 17.0 | 0.00 | 0.02 | 0.02 | 70 | 1006.4 |
| 20260505150526 | 65 | 250 | 9.0 | 20.0 | 0.01 | 0.02 | 0.02 | 70 | 1006.4 |